Tracking 23726 objects as of 24-Sep-2021
HD Live streaming from Space Station
objects crossing your sky now

STARLINK-2042

Track STARLINK-2042 now!
10-day predictions
STARLINK-2042 is classified as:


NORAD ID: 47658
Int'l Code: 2021-012AQ
Perigee: 553.0 km
Apogee: 555.7 km
Inclination: 53.1 °
Period: 95.6 minutes
Semi major axis: 6925 km
RCS: Unknown
Launch date: February 16, 2021
Source: United States (US)
Launch site: AIR FORCE EASTERN TEST RANGE (AFETR)
aabbcc
Your satellite tracking list
Your tracking list is empty




NASA's NSSDC Master Catalog

Two Line Element Set (TLE):
1 47658U 21012AQ  21267.25001157 -.00005801  00000-0 -37080-3 0  9992
2 47658  53.0525 177.4870 0001921  70.1431 170.7653 15.06404157 34183
Source of the keplerian elements: AFSPC